Regional Weather Roundup
Issued by NWS Upton, NY

Current Version | Previous Version | Graphics & Text | Print | Product List | Glossary Off
Versions: 1 2 3 4 5 6 7 8 9 10 11 12 13 14 15 16 17 18 19 20 21 22 23 24 25 26 27 28

000
ASUS41 KOKX 131108
RWROKX

REGIONAL WEATHER ROUNDUP
NATIONAL WEATHER SERVICE NEW YORK NY
600 AM EST WED DEC 13 2017

NOTE: "FAIR" INDICATES FEW OR NO CLOUDS BELOW 12,000 FEET WITH NO
SIGNIFICANT WEATHER AND/OR OBSTRUCTIONS TO VISIBILITY.

NYZ071-072-176-178-NJZ106-104-131200-
NEW YORK CITY METRO AREA

CITY           SKY/WX    TMP DP  RH WIND       PRES   REMARKS
Central Park   CLEAR     20   5  52 W9G23     29.52S WCI   9
Bronx Bot Gard   N/A     21   5  49 W7        29.51R WCI  13
Bronx Lehman C   N/A     21   5  49 W14G25      N/A  WCI   8
LaGuardia APRT PTCLDY    22   6  50 W22G36    29.51R WCI   6
Queens College   N/A     23   5  46 W20G32      N/A  WCI   8
Kennedy INTL   CLEAR     21   6  52 W25G38    29.52R WCI   4
Breezy Point     N/A    N/A N/A N/A W21G33      N/A
Brooklyn Coll    N/A     23   7  50 W18         N/A  WCI   9
Staten Island    N/A     21   7  53 W16G31      N/A  WCI   7
Newark/Liberty PTCLDY    20   5  52 W17G24    29.53S WCI   5
Teterboro      CLEAR     20   6  55 W13       29.51S WCI   7
$$

NYZ177-179-078>081-131200-
LONG ISLAND NEW YORK

CITY           SKY/WX    TMP DP  RH WIND       PRES   REMARKS
Jones Beach      N/A    N/A N/A N/A W30         N/A
Wantagh          N/A     23   5  46 W21         N/A  WCI   8
Matinecock PT    N/A    N/A N/A N/A W32G39      N/A
Farmingdale    PTCLDY    21   3  45 NW17G32   29.48R WCI   7
MacArthur/ISP  PTCLDY    21   4  47 W16G29    29.45R WCI   7
Shirley        MOCLDY    22   6  50 W18G33    29.45R WCI   7
Mt Sinai Harb    N/A    N/A N/A N/A W17G25      N/A
Westhampton    MOCLDY    22   5  48 W17G26    29.44R WCI   8
East Hampton   CLOUDY    23   8  52 NW17G29   29.40R WCI   9
Southold         N/A     25  10  54 NW17        N/A  WCI  11
Montauk          N/A     27  13  55 W16G28    29.39R WCI  15
$$

NYZ052-065-067-131200-
HUDSON VALLEY

CITY           SKY/WX    TMP DP  RH WIND       PRES   REMARKS
White Plains   PTCLDY    19   4  51 W24G35    29.43S WCI   2
Larchmont Harb   N/A    N/A N/A N/A W17G23      N/A
Croton On Huds   N/A    N/A N/A N/A W23G30      N/A
Somers           N/A     18   5  57 W12G24      N/A  WCI   5
Brewster         N/A     18   5  57 NW13        N/A  WCI   4
Newburgh       CLEAR     18   7  62 W12G23    29.45F WCI   5
Montgomery     CLEAR     18   4  54 W16       29.46R WCI   3
Otisville        N/A     16   7  67 W8G20       N/A  WCI   5
Warwick          N/A     18   7  62 W12         N/A  WCI   5
Suffern          N/A     18   7  62 W10         N/A  WCI   6
Poughkeepsie   CLEAR     18   3  52 W15G25    29.44F WCI   4
Albany         CLOUDY    17   6  62 W14G22    29.41F WCI   3
$$

NJZ001-105-106-008-010-013-015-019>022-104-131200-
NEW JERSEY

CITY           SKY/WX    TMP DP  RH WIND       PRES   REMARKS
Newark/Liberty PTCLDY    20   5  52 W17G24    29.53S WCI   5
Teterboro      CLEAR     20   6  55 W13       29.51S WCI   7
Caldwell       CLEAR     19   5  54 W13G29    29.52S WCI   6
Somerville     CLEAR     19   6  57 W9G16     29.54S WCI   8
Linden         FAIR      20   5  52 W17G28    29.54S WCI   5
Perth Amboy      N/A    N/A N/A N/A W25G31      N/A
Sussex         CLEAR     17   5  59 W8        29.48S WCI   7
Andover        NOT AVBL
Trenton        CLEAR     20   4  50 W13G25    29.59S WCI   7
Millville      CLEAR     21   6  52 W17G25    29.68R WCI   7
Atlantic City  PTCLDY    22   3  44 W17G32    29.65R WCI   8
Wrightstown    CLEAR     20   3  47 W18G25    29.58S WCI   4
Toms River     CLEAR     20   5  52 W20G26    29.60R WCI   4
Belmar         CLEAR     19   5  54 W15G24    29.56R WCI   5
$$

PAZ047>061-062-071-131200-
EASTERN PENNSYLVANIA

CITY           SKY/WX    TMP DP  RH WIND       PRES   REMARKS
Philadelphia   PTCLDY    21   2  43 W17G26    29.67R WCI   7
Allentown      PTCLDY    20   5  52 W21G30    29.58S WCI   4
Scranton       CLOUDY    16   8  71 W10       29.52R WCI   4
$$

CTZ002-004>006-009-010-012-RIZ004-006-007-MAZ004-011-015-131200-
SOUTHERN NEW ENGLAND
 IN CT

CITY           SKY/WX    TMP DP  RH WIND       PRES   REMARKS
Bradley INTL   PTCLDY    19   6  57 W16G24    29.36F WCI   4
Hartford       MOCLDY    22   5  48 NW7       29.39S WCI  13
Danbury        CLEAR     19   5  54 W12G20    29.42S WCI   7
Wtrbury/Oxford CLEAR     16   5  62 W15G23    29.37S WCI   1
Norwalk Harbor   N/A    N/A N/A N/A W25G33      N/A
Bridgeport     CLEAR     21   5  50 W15G28    29.44R WCI   8
Meriden        PTCLDY    20   5  52 W12G21    29.40R WCI   8
New Haven      CLEAR     22   7  52 W14G24    29.42R WCI   9
Chester        FAIR      19   7  58 NW10G21   29.35S WCI   8
Groton         MOCLDY    24   8  50 W15       29.37R WCI  11
Wilimantic     PTCLDY    21   6  52 NW12G22   29.36R WCI   9

 IN RI

CITY           SKY/WX    TMP DP  RH WIND       PRES   REMARKS
Providence     CLEAR     22   9  57 W12G22    29.33R WCI  10
Block Island   CLOUDY    26  15  63 W15G26    29.35R WCI  14
Westerly       PTCLDY    24   5  44 NW14G23   29.36R WCI  12
 IN MA

CITY           SKY/WX    TMP DP  RH WIND       PRES   REMARKS
Boston         PTCLDY    24  13  62 W17G26    29.26S WCI  11
Worcester      CLEAR     15   6  67 W10G23    29.23R WCI   2
Westfield      CLEAR     17   7  64 W5G17     29.35S WCI  10
Provincetown   CLOUDY    28  20  71 W22G30    29.24R WCI  14
Nantucket      CLOUDY    30  23  75 W21G28    29.27R WCI  17
$$

ANZ330-335-338-340-345-350-353-355-131200-
COASTAL MARINE OBSERVATIONS


STATION/POSITION TIME  SKY/WX   TEMP    WIND        PRES    VSBY  WAVE
                                AIR SEA DIR/SP/G                  HT/PER
                 (UTC)          (F)     (DEG/KT/KT) (MB)    (MI)  (FT/S)
NY HARB ENTRANCE 0950            26 52  290/ 33/ 41  997.8          6/ 6
20 S FIRE ISLAND 0950            27 52  300/ 33/ 39  997.1          9/ 7
GREAT SOUTH BAY  1015            24 45  290/ 21/ 29   N/A
HUDSON CANYON    1050            30 56  290/ 31/ 39  998.1         14/ 9
KINGS POINT      1030            23 44  340/ 22/ 33  999.8
EXECUTION ROCKS  1030            25     270/ 19/ 27   N/A
WESTERN LI SOUND NOT AVBL
CENTRAL LI SOUND 1015            26     300/ 25/ 33   N/A           5
ROBBINS REEF     1030            21     270/ 24/ 31 1000.1
$$


>>>>>>>>>>>>>>>>>>>>>>>>>>>> KEY <<<<<<<<<<<<<<<<<<<<<<<<<<<
>                                                          <
>     SKY/WX - Sky Condition/Present Weather               <
>     TMP    - Temperature in Fahrenheit                   <
>     DP     - Dew Point in Fahrenheit                     <
>     RH     - Relative Humidity in Percent                <
>     WIND   - Direction (from) and Speed in MPH           <
>     PRES   - Mean Sea Level Pressure (inches of Hg)      <
>     WCI    - Wind Chill Index                            <
>     VSB    - VISIBILITY IN MILES                         <
>     HX     - HEAT INDEX                                  <
>     TC     - TEMPERATURE IN CELSIUS                      <
>     VRB    - VARIABLE WIND DIRECTION                     <
>                                                          <
>>>>>>>>>>>>>>>>>>>>>>>>>>>> KEY <<<<<<<<<<<<<<<<<<<<<<<<<<<




USA.gov is the U.S. government's official web portal to all federal, state and local government web resources and services.